• în România
  • Lista ţărilor
  • Pe 7 zile
  • Temperatura apei
  • Hartă satelitară
  • Meteo pe hartă
  • Widget-uri
  • user-avatar
    Intrare

    Meteo pe oră la Propletkino

    Astăzi, 23 Aprilie, Luni

    Timp Temperatura Precipitaţii Vânt Presiune Umiditate
    00:00 -1°C° 0 mm 2 m/s 742 mmHg 80%
    01:00 0°C° 0 mm 1 m/s 742 mmHg 81%
    02:00 0°C° 0 mm 1 m/s 742 mmHg 82%
    03:00 0°C° 0 mm 1 m/s 743 mmHg 82%
    04:00 0°C° 0 mm 1 m/s 743 mmHg 81%
    05:00 -1°C° 0 mm 1 m/s 743 mmHg 81%
    06:00 +1°C° 0 mm 1 m/s 744 mmHg 70%
    07:00 +2°C° 0 mm 2 m/s 744 mmHg 60%
    08:00 +4°C° 0 mm 2 m/s 744 mmHg 49%
    09:00 +5°C° 0 mm 2 m/s 744 mmHg 45%
    10:00 +6°C° 0 mm 2 m/s 744 mmHg 40%
    11:00 +7°C° 0 mm 2 m/s 744 mmHg 35%
    12:00 +8°C° 0 mm 2 m/s 744 mmHg 34%
    13:00 +8°C° 0 mm 2 m/s 743 mmHg 33%
    14:00 +9°C° 0 mm 2 m/s 743 mmHg 32%
    15:00 +9°C° 0 mm 2 m/s 743 mmHg 34%
    16:00 +8°C° 0 mm 2 m/s 743 mmHg 35%
    17:00 +9°C° 0 mm 1 m/s 743 mmHg 37%
    18:00 +7°C° 0 mm 1 m/s 743 mmHg 43%
    19:00 +6°C° 0 mm 1 m/s 743 mmHg 49%
    20:00 +3°C° 0 mm 0 m/s 743 mmHg 56%
    21:00 +3°C° 0 mm 1 m/s 742 mmHg 58%
    22:00 +3°C° 0 mm 1 m/s 742 mmHg 60%
    23:00 +2°C° 0 mm 1 m/s 742 mmHg 62%

    Mâine, 24 Aprilie, Marţi

    Timp Temperatura Precipitaţii Vânt Presiune Umiditate
    00:00 +2°C° 0 mm 1 m/s 742 mmHg 63%
    01:00 +2°C° 0 mm 1 m/s 742 mmHg 64%
    02:00 +1°C° 0 mm 2 m/s 742 mmHg 66%
    03:00 +1°C° 0 mm 2 m/s 741 mmHg 66%
    04:00 +1°C° 0 mm 2 m/s 741 mmHg 66%
    05:00 +1°C° 0 mm 2 m/s 740 mmHg 66%
    06:00 +3°C° 0 mm 2 m/s 740 mmHg 63%
    07:00 +3°C° 0 mm 3 m/s 740 mmHg 61%
    08:00 +5°C° 0 mm 3 m/s 739 mmHg 58%
    09:00 +7°C° 0 mm 3 m/s 739 mmHg 57%
    10:00 +8°C° 0 mm 4 m/s 739 mmHg 55%
    11:00 +10°C° 0 mm 4 m/s 738 mmHg 53%
    12:00 +10°C° 0,1 mm 4 m/s 738 mmHg 56%
    13:00 +10°C° 0,1 mm 4 m/s 737 mmHg 59%
    14:00 +11°C° 0,1 mm 4 m/s 737 mmHg 62%
    15:00 +10°C° 0,5 mm 3 m/s 737 mmHg 70%
    16:00 +9°C° 0,5 mm 3 m/s 736 mmHg 78%
    17:00 +9°C° 0,5 mm 2 m/s 736 mmHg 85%
    18:00 +8°C° 0 mm 2 m/s 736 mmHg 89%
    19:00 +8°C° 0 mm 2 m/s 736 mmHg 92%
    20:00 +7°C° 0 mm 2 m/s 736 mmHg 95%
    21:00 +7°C° 0 mm 2 m/s 736 mmHg 95%
    22:00 +7°C° 0 mm 2 m/s 736 mmHg 96%
    23:00 +7°C° 0 mm 2 m/s 736 mmHg 96%

    Poimâine, 25 Aprilie, Miercuri

    Timp Temperatura Precipitaţii Vânt Presiune Umiditate
    00:00 +6°C° 0 mm 2 m/s 736 mmHg 96%
    01:00 +6°C° 0 mm 2 m/s 736 mmHg 95%
    02:00 +6°C° 0 mm 2 m/s 736 mmHg 95%
    03:00 +5°C° 0 mm 2 m/s 736 mmHg 95%
    04:00 +5°C° 0 mm 2 m/s 736 mmHg 95%
    05:00 +5°C° 0 mm 2 m/s 735 mmHg 95%
    06:00 +5°C° 0 mm 3 m/s 735 mmHg 93%
    07:00 +5°C° 0 mm 3 m/s 735 mmHg 91%
    08:00 +7°C° 0 mm 3 m/s 735 mmHg 89%
    09:00 +7°C° 0,1 mm 4 m/s 735 mmHg 88%
    10:00 +7°C° 0,1 mm 4 m/s 734 mmHg 87%
    11:00 +8°C° 0,1 mm 4 m/s 734 mmHg 86%
    12:00 +8°C° 0,1 mm 4 m/s 734 mmHg 80%
    13:00 +9°C° 0,1 mm 5 m/s 734 mmHg 74%
    14:00 +10°C° 0,1 mm 5 m/s 734 mmHg 68%
    15:00 +10°C° 0,1 mm 5 m/s 734 mmHg 65%
    16:00 +10°C° 0,1 mm 5 m/s 734 mmHg 62%
    17:00 +10°C° 0,1 mm 5 m/s 734 mmHg 59%
    18:00 +8°C° 0 mm 4 m/s 734 mmHg 65%
    19:00 +8°C° 0 mm 3 m/s 734 mmHg 71%
    20:00 +6°C° 0 mm 2 m/s 735 mmHg 77%
    21:00 +6°C° 0 mm 2 m/s 734 mmHg 78%
    22:00 +6°C° 0 mm 2 m/s 734 mmHg 79%
    23:00 +6°C° 0 mm 2 m/s 734 mmHg 80%

    26 Aprilie, Joi

    Timp Temperatura Precipitaţii Vânt Presiune Umiditate
    00:00 +5°C° 0 mm 2 m/s 734 mmHg 83%
    01:00 +5°C° 0 mm 2 m/s 734 mmHg 86%
    02:00 +4°C° 0 mm 2 m/s 734 mmHg 89%
    03:00 +4°C° 0 mm 2 m/s 734 mmHg 90%
    04:00 +3°C° 0 mm 2 m/s 734 mmHg 91%
    05:00 +3°C° 0 mm 2 m/s 734 mmHg 93%
    06:00 +5°C° 0 mm 2 m/s 734 mmHg 84%
    07:00 +7°C° 0 mm 3 m/s 734 mmHg 75%
    08:00 +8°C° 0 mm 3 m/s 734 mmHg 66%
    09:00 +8°C° 0,1 mm 4 m/s 735 mmHg 62%
    10:00 +10°C° 0,1 mm 4 m/s 735 mmHg 57%
    11:00 +12°C° 0,1 mm 5 m/s 735 mmHg 52%
    12:00 +12°C° 0,3 mm 5 m/s 735 mmHg 51%
    13:00 +12°C° 0,3 mm 5 m/s 735 mmHg 50%
    14:00 +13°C° 0,3 mm 5 m/s 735 mmHg 48%
    15:00 +12°C° 0,3 mm 5 m/s 736 mmHg 51%
    16:00 +12°C° 0,3 mm 4 m/s 736 mmHg 53%
    17:00 +11°C° 0,3 mm 4 m/s 736 mmHg 56%
    18:00 +10°C° 0,1 mm 3 m/s 736 mmHg 62%
    19:00 +9°C° 0,1 mm 3 m/s 737 mmHg 68%
    20:00 +7°C° 0,1 mm 2 m/s 737 mmHg 74%
    21:00 +7°C° 0,1 mm 2 m/s 738 mmHg 75%
    22:00 +7°C° 0,1 mm 3 m/s 738 mmHg 76%
    23:00 +7°C° 0,1 mm 3 m/s 738 mmHg 77%

    27 Aprilie, Vineri

    Timp Temperatura Precipitaţii Vânt Presiune Umiditate
    00:00 +5°C° 0 mm 3 m/s 738 mmHg 81%
    01:00 +5°C° 0 mm 3 m/s 739 mmHg 85%
    02:00 +5°C° 0 mm 2 m/s 739 mmHg 89%
    03:00 +5°C° 0 mm 2 m/s 739 mmHg 91%
    04:00 +4°C° 0 mm 2 m/s 739 mmHg 93%
    05:00 +4°C° 0 mm 2 m/s 740 mmHg 94%
    06:00 +5°C° 0 mm 2 m/s 740 mmHg 85%
    07:00 +7°C° 0 mm 3 m/s 740 mmHg 76%
    08:00 +9°C° 0 mm 3 m/s 740 mmHg 66%
    09:00 +10°C° 0 mm 3 m/s 740 mmHg 58%
    10:00 +12°C° 0 mm 3 m/s 740 mmHg 50%
    11:00 +13°C° 0 mm 3 m/s 740 mmHg 42%
    12:00 +14°C° 0 mm 4 m/s 739 mmHg 41%
    13:00 +14°C° 0 mm 4 m/s 739 mmHg 41%
    14:00 +15°C° 0 mm 4 m/s 739 mmHg 41%
    15:00 +13°C° 1,5 mm 3 m/s 738 mmHg 55%
    16:00 +11°C° 1,5 mm 3 m/s 738 mmHg 70%
    17:00 +9°C° 1,5 mm 2 m/s 737 mmHg 85%
    18:00 +8°C° 0,4 mm 3 m/s 737 mmHg 86%
    19:00 +8°C° 0,4 mm 3 m/s 737 mmHg 87%
    20:00 +7°C° 0,4 mm 3 m/s 738 mmHg 88%
    21:00 +6°C° 0 mm 4 m/s 738 mmHg 88%
    22:00 +5°C° 0 mm 4 m/s 738 mmHg 88%
    23:00 +5°C° 0 mm 5 m/s 739 mmHg 87%

    28 Aprilie, Sâmbătă

    Timp Temperatura Precipitaţii Vânt Presiune Umiditate
    00:00 +3°C° 0,1 mm 5 m/s 739 mmHg 87%
    01:00 +3°C° 0,1 mm 5 m/s 739 mmHg 88%
    02:00 +3°C° 0,1 mm 5 m/s 740 mmHg 88%
    03:00 +3°C° 0 mm 5 m/s 740 mmHg 87%
    04:00 +3°C° 0 mm 5 m/s 741 mmHg 87%
    05:00 +3°C° 0 mm 5 m/s 741 mmHg 87%
    06:00 +3°C° 0 mm 5 m/s 742 mmHg 84%
    07:00 +3°C° 0 mm 5 m/s 742 mmHg 82%
    08:00 +4°C° 0 mm 4 m/s 743 mmHg 79%
    09:00 +6°C° 0 mm 5 m/s 743 mmHg 73%
    10:00 +8°C° 0 mm 5 m/s 743 mmHg 66%
    11:00 +9°C° 0 mm 5 m/s 744 mmHg 59%
    12:00 +10°C° 0,2 mm 5 m/s 744 mmHg 56%
    13:00 +12°C° 0,2 mm 5 m/s 744 mmHg 52%
    14:00 +12°C° 0,2 mm 5 m/s 744 mmHg 48%
    15:00 +12°C° 0,1 mm 4 m/s 744 mmHg 49%
    16:00 +12°C° 0,1 mm 3 m/s 744 mmHg 50%
    17:00 +12°C° 0,1 mm 3 m/s 744 mmHg 51%
    18:00 +10°C° 0,1 mm 2 m/s 744 mmHg 58%
    19:00 +10°C° 0,1 mm 1 m/s 745 mmHg 65%
    20:00 +8°C° 0,1 mm 1 m/s 745 mmHg 73%
    21:00 +7°C° 0,1 mm 1 m/s 745 mmHg 77%
    22:00 +7°C° 0,1 mm 1 m/s 745 mmHg 81%
    23:00 +6°C° 0,1 mm 1 m/s 746 mmHg 85%
    Arată mai mult